Location: Clermont
(50.2608°N, 4.3172°E)
Time: 17:48:06
(UTC+00:00)

Meteor 2-9 Rocket - Pass Details

Date: 13 August 2020
Orbit: 792 x 895 km, 81.3° (Epoch: 24 September)

Event Time Altitude Azimuth Distance (km) Brightness Sun altitude
Exits shadow 23:03:13 52° 118° (ESE) 1,061 4.4 -24.7°
Maximum altitude 23:03:48 54° 95° (E) 1,036 4.5 -24.7°
Drops below altitude 10° 23:09:25 10° 20° (NNE) 2,541 7.5 -24.9°
Sets 23:11:56 0° 16° (NNE) 3,496 8.4 -25.0°
